Wetbulb
66.76 61.25 58.58 57.27 52.42 53.72 52.57 54.91 58.88 56.94 57.28 60.20 59.83 59.10 61.31 66.70 65.48 64.43 76.58 74.74 76.24 77.81 78.97 77.34 77.27 77.62 78.08 77.77 77.70 77.34 77.17 77.27 77.37 77.02 76.69 76.69 76.14 76.37 76.61 76.94 76.99 76.16 75.15 75.15 75.25 74.97 74.56 74.57 74.49
60.91 57.29 57.97 56.22 50.82 50.74 52.32 57.27 55.83 58.67 59.61 60.30 60.16 59.13 62.65 64.54 70.61 73.68 73.86 75.22 77.05 78.28 78.72 77.78 76.99 77.15 77.62 77.62 77.38 77.23 77.36 77.26 77.11 76.89 76.74 76.54 76.14 76.41 76.69 76.89 76.79 75.51 74.88 74.52 74.45 74.31 74.14 74.23 74.17
58.03 57.41 53.79 51.60 51.38 50.44 53.32 57.23 57.15 59.81 60.38 59.35 57.97 59.49 59.13 64.58 73.12 75.00 76.15 76.21 77.56 78.11 78.59 78.11 76.92 76.89 77.27 77.39 77.05 77.08 77.05 76.93 76.91 76.84 76.66 76.36 76.39 76.56 76.56 76.66 76.59 75.21 74.71 74.45 74.39 74.05 73.98 74.08 74.01
56.02 55.06 54.19 48.88 49.71 53.32 55.13 58.12 57.25 57.62 58.30 57.84 57.75 56.19 58.92 67.53 73.31 76.56 75.90 76.66 77.44 77.87 78.55 76.99 76.89 76.79 76.94 77.04 77.01 76.75 76.73 76.81 76.63 76.54 76.51 76.31 76.48 76.35 76.40 76.64 76.52 75.72 74.62 74.58 74.50 74.20 74.09 73.91 73.69
55.42 53.23 47.61 46.51 48.14 52.16 52.89 55.38 56.96 55.85 56.74 56.46 56.27 55.99 56.94 71.00 76.49 77.09 75.82 76.68 76.95 77.46 78.56 77.36 76.63 76.61 76.66 76.74 76.59 76.33 76.40 76.18 76.10 76.23 76.33 76.41 76.20 76.39 76.28 76.21 75.91 75.73 74.87 74.40 74.41 74.07 74.54 74.54 74.06
50.15 51.24 45.23 44.52 47.02 50.31 53.16 54.51 54.25 54.72 55.80 55.70 54.06 55.38 57.18 70.16 74.32 77.27 76.67 76.85 77.30 77.01 78.23 77.12 76.64 76.45 76.43 76.43 76.26 75.90 75.67 75.58 75.70 75.75 76.00 76.02 76.02 76.14 76.12 76.26 75.89 75.64 75.23 74.62 74.50 74.21 74.29 74.44 74.41
49.68 47.90 44.78 46.12 46.83 48.54 50.56 53.61 52.00 53.22 54.02 54.62 56.20 52.88 58.15 68.14 74.61 77.84 76.99 77.55 77.34 77.37 77.52 76.63 75.69 76.44 76.15 76.07 75.74 75.69 75.34 75.15 75.15 75.22 75.36 75.71 75.89 75.96 75.92 76.07 76.18 75.71 74.99 74.74 74.59 74.19 73.86 73.59 73.19
51.91 49.42 46.28 46.54 45.82 46.38 51.47 50.75 52.53 51.85 51.34 55.24 54.71 52.15 55.66 69.33 75.71 77.52 77.39 77.36 77.31 77.10 77.08 76.59 75.68 74.78 74.83 75.51 75.92 75.74 75.34 75.07 74.81 74.93 75.26 75.28 75.57 75.66 75.71 75.18 75.73 75.63 75.23 74.61 74.04 73.42 73.24 73.04 73.12
53.72 46.92 45.36 47.07 46.49 47.71 50.20 49.23 52.31 53.33 52.05 52.84 54.45 55.81 61.54 72.08 75.84 76.33 76.61 76.64 76.49 76.16 76.79 76.73 75.85 74.70 74.19 74.07 75.29 75.44 75.45 75.12 74.64 74.86 74.77 74.38 73.48 74.64 75.32 73.95 75.00 75.30 74.87 74.52 74.20 73.88 73.73 73.27 73.02
50.40 47.59 47.85 50.84 51.05 49.41 51.00 49.62 50.57 50.33 50.87 51.80 56.16 66.00 72.35 72.38 73.73 74.49 74.83 74.87 75.06 74.94 76.01 76.60 76.64 75.41 74.75 73.99 75.00 74.29 74.36 74.25 74.15 73.80 74.31 73.33 74.03 74.38 73.95 74.75 74.75 74.66 74.04 73.66 73.78 73.98 73.34 72.94 71.09
51.22 48.55 51.95 51.50 51.36 51.40 50.52 49.66 51.21 49.87 49.40 52.24 52.97 62.18 71.40 72.14 72.79 73.90 74.61 74.94 74.86 75.38 75.89 76.42 76.98 76.71 75.57 74.85 74.74 73.96 74.15 74.19 74.37 74.79 74.63 74.64 74.36 74.66 74.14 74.37 74.69 75.00 73.63 73.16 72.46 72.32 71.64 70.97 70.48
48.25 51.70 51.86 52.61 51.30 50.15 49.35 51.26 49.86 50.42 51.02 53.10 54.79 54.69 56.00 71.33 72.28 73.62 74.21 74.64 74.73 75.12 75.65 76.62 77.25 76.56 76.37 75.14 75.04 74.93 74.54 74.60 74.49 75.09 75.86 75.14 74.45 74.55 73.70 72.89 73.14 73.53 73.23 72.53 72.07 70.91 71.69 72.22 72.42
49.70 50.17 51.81 52.03 51.64 50.91 51.27 50.11 49.77 50.51 52.65 53.85 54.50 54.89 55.63 57.38 73.02 74.44 74.77 75.03 75.19 74.82 75.76 76.74 77.26 76.91 76.43 76.14 75.67 75.10 74.92 74.91 75.31 75.30 76.00 75.49 74.49 74.28 74.25 73.86 73.06 72.89 72.56 72.59 71.82 71.23 71.80 71.67 71.37
50.85 50.77 50.76 51.33 51.33 51.84 49.83 50.09 50.42 51.33 53.51 53.20 53.36 54.04 55.56 57.22 67.44 74.22 73.99 74.26 74.92 75.42 75.87 76.95 76.97 77.55 76.96 76.91 76.97 75.99 76.19 76.15 75.67 75.30 75.55 75.67 75.24 75.00 74.25 73.97 73.30 72.60 72.79 72.81 72.64 72.02 72.58 73.42 73.78
50.29 47.52 49.43 50.37 50.79 50.10 51.25 47.81 48.66 52.43 53.05 52.43 52.79 53.73 55.03 56.90 58.56 73.59 75.08 75.08 75.99 76.32 76.63 76.63 76.91 77.05 76.11 77.37 77.43 77.04 76.70 76.47 75.70 75.53 76.18 75.80 75.86 75.76 75.63 73.92 73.27 72.63 74.57 74.53 74.01 74.21 73.93 74.01 74.46
47.10 47.48 44.20 49.30 50.06 50.89 50.32 45.28 51.19 53.94 52.75 52.18 52.86 52.99 54.08 55.91 57.18 67.53 74.00 75.64 76.68 77.11 77.05 77.59 76.47 76.06 75.16 77.35 77.03 75.91 76.36 76.06 75.76 75.68 76.06 76.16 76.09 76.09 75.66 74.02 73.61 73.52 76.45 76.08 74.58 73.67 73.83 72.31 73.24
46.05 42.48 43.34 45.76 50.21 49.42 48.58 46.17 50.89 52.59 53.46 53.10 53.88 53.58 53.62 55.39 57.44 59.59 67.61 74.93 76.49 77.49 77.86 77.44 77.05 76.15 75.92 77.07 75.28 75.80 76.46 76.20 75.83 75.82 75.98 76.15 75.90 75.48 75.94 75.61 74.81 74.35 74.39 72.72 71.88 71.33 71.26 69.42 70.81
42.59 42.60 45.02 45.09 48.21 48.68 47.48 46.88 50.64 51.99 52.69 52.41 54.03 54.27 53.61 54.56 56.50 59.07 62.11 68.44 74.35 76.95 77.86 77.43 74.96 77.07 76.73 75.11 75.24 74.94 75.00 75.95 76.14 77.57 77.43 74.70 74.38 72.59 72.10 70.94 70.50 69.46 67.94 67.87 70.04 68.91 69.80 69.52 69.97
46.93 45.66 44.78 47.05 49.30 47.85 47.40 47.99 49.41 51.87 52.33 52.26 53.25 54.19 54.21 54.59 57.37 58.80 60.85 64.79 68.86 73.38 74.85 75.22 73.67 75.68 74.31 72.63 73.20 73.09 73.20 73.89 73.84 74.36 73.67 72.27 71.94 70.95 70.32 69.23 65.59 64.73 63.94 64.80 67.52 68.70 69.18 69.01 69.35
45.48 44.32 44.85 46.92 48.06 47.25 47.52 47.16 50.20 51.33 51.58 52.77 53.23 53.77 54.41 54.91 56.51 57.81 60.22 63.39 67.37 70.61 73.28 74.16 73.86 73.61 73.44 73.72 74.54 74.31 73.15 74.07 73.99 73.65 72.85 71.41 69.85 69.84 68.77 67.32 64.81 63.56 63.52 63.05 66.55 67.43 66.47 66.84 67.80
44.57 43.86 44.50 44.10 46.78 47.48 46.64 45.78 48.21 50.89 52.29 53.23 54.19 54.95 55.13 55.10 56.12 57.89 58.65 60.95 65.21 67.92 71.34 73.11 73.34 71.91 73.35 75.01 74.36 75.16 73.92 73.37 72.01 71.27 70.44 70.86 69.56 67.73 67.84 67.41 66.13 64.42 62.78 64.61 67.75 67.45 67.44 66.08 68.11
41.31 46.63 45.91 44.42 43.24 39.76 46.33 39.77 45.84 49.40 50.08 51.66 53.17 54.38 54.67 55.47 56.30 57.66 60.47 61.65 64.33 66.50 70.04 72.83 72.86 71.74 72.45 74.55 73.80 73.55 72.00 70.52 71.34 71.46 69.67 66.96 66.87 66.14 66.23 66.84 68.30 67.40 67.32 67.11 66.66 66.07 65.64 64.56 65.19
43.64 47.51 45.72 45.00 43.34 43.43 43.31 40.63 46.17 48.90 47.42 50.00 52.33 53.54 54.78 55.82 56.57 56.84 60.00 63.06 65.23 67.80 70.77 71.16 71.08 71.38 72.41 72.87 73.78 72.87 73.69 74.64 72.71 69.50 66.92 66.48 67.51 68.34 67.49 67.69 66.60 66.14 63.52 63.16 63.24 62.93 62.64 62.77 61.68
46.93 44.30 44.23 45.07 43.07 37.32 42.68 41.44 43.24 46.50 48.24 50.24 52.46 53.56 54.76 55.19 56.30 57.49 60.22 65.55 67.87 69.08 67.88 69.30 68.17 70.33 71.44 69.86 69.17 69.19 68.76 69.40 67.48 66.32 64.99 63.78 63.88 63.74 63.28 62.61 63.34 63.64 63.22 61.48 61.35 61.46 59.76 60.24 59.67
43.63 40.03 32.42 31.53 33.06 34.46 43.73 41.99 44.70 49.94 50.63 51.67 52.33 53.37 54.76 56.02 56.85 58.26 64.76 64.34 64.25 64.42 65.46 64.72 64.41 61.69 62.35 63.60 63.91 62.72 62.56 64.77 65.75 65.64 65.71 64.55 63.69 64.47 64.29 64.59 63.55 62.68 61.80 60.76 59.91 59.56 60.19 59.69 57.94
42.63 41.91 36.12 30.49 32.57 36.25 43.82 38.94 44.14 49.91 50.95 52.63 53.98 55.48 58.53 61.46 61.73 63.59 62.63 61.77 62.57 63.49 64.15 64.57 63.99 62.88 65.10 65.14 63.35 64.13 62.98 59.68 61.11 63.70 64.91 64.29 63.19 61.22 62.18 61.85 61.39 60.51 60.51 61.13 61.65 60.32 59.07 59.60 59.07
41.06 38.37 44.36 39.42 41.97 38.64 40.61 43.99 48.23 49.77 49.67 53.69 56.14 59.53 60.65 60.61 60.79 59.96 60.47 62.82 63.44 64.09 65.30 65.82 65.89 65.76 65.26 64.28 63.74 61.42 60.07 58.58 59.99 60.89 62.38 60.79 61.09 60.10 60.25 60.10 59.77 59.54 59.96 60.10 59.95 59.84 59.62 59.33 58.94
44.56 46.80 38.28 38.75 32.57 32.21 38.87 40.87 42.37 46.66 49.72 54.85 56.35 57.30 56.83 57.71 57.94 59.28 60.98 62.15 63.18 64.01 65.31 64.93 65.02 64.44 64.51 63.28 63.10 61.31 59.37 58.59 59.47 59.36 59.42 59.46 59.47 59.72 59.08 59.03 59.50 59.59 59.21 58.84 59.32 58.71 58.91 58.26 57.87
40.51 40.44 41.84 42.20 41.15 36.34 35.77 39.48 49.87 48.69 51.82 54.36 55.97 54.06 54.86 55.72 57.20 58.52 59.43 60.83 62.13 63.72 63.86 63.63 63.33 63.19 62.91 62.13 61.42 59.28 58.24 58.43 59.18 58.95 59.21 59.81 60.20 59.27 58.57 58.76 59.49 59.29 59.10 58.60 58.33 57.94 57.41 57.32 57.83
41.80 41.67 43.76 38.29 37.28 41.57 41.65 41.28 53.41 52.16 54.22 56.75 53.47 54.43 54.97 55.33 56.43 57.90 59.74 61.71 62.46 62.33 62.25 61.92 61.93 61.32 61.31 60.96 59.94 59.05 58.41 59.02 58.74 58.70 59.34 59.90 59.20 59.45 59.01 59.19 58.76 57.96 57.22 57.60 57.26 56.85 57.05 57.12 56.43
MSLP
1010.63 1009.60 1008.99 1007.83 1006.32 1003.90 1001.49 1000.18 1000.29 1000.27 1000.53 1000.95 1001.27 1000.93 1000.23 999.71 999.00 1000.54 1002.43 1003.20 1003.83 1005.09 1006.45 1007.68 1008.32 1008.82 1009.28 1009.59 1009.88 1010.23 1010.63 1010.97 1011.34 1011.69 1012.09 1012.52 1012.81 1012.98 1013.19 1013.38 1013.56 1013.76 1013.98 1014.14 1014.33 1014.49 1014.62 1014.72 1014.79
1009.60 1009.24 1008.40 1006.39 1004.78 1001.92 1000.30 1000.05 1000.39 1000.04 1000.29 1001.15 1001.08 1000.92 1000.58 1000.01 1000.36 1001.94 1002.73 1003.75 1004.41 1005.47 1006.50 1007.29 1008.43 1008.73 1009.09 1009.74 1009.92 1010.15 1010.54 1011.01 1011.41 1011.75 1012.18 1012.55 1012.88 1013.09 1013.29 1013.56 1013.71 1013.96 1014.16 1014.31 1014.46 1014.61 1014.76 1014.90 1015.01
1009.73 1009.09 1007.03 1005.19 1003.23 1000.83 999.70 999.54 1000.41 1000.41 1000.83 1001.30 1001.15 1001.13 1000.93 1000.42 1001.17 1001.59 1002.59 1003.75 1004.41 1005.64 1006.38 1007.42 1008.57 1009.04 1009.33 1009.73 1010.21 1010.43 1010.52 1010.89 1011.36 1011.81 1012.21 1012.57 1012.81 1013.12 1013.37 1013.62 1013.82 1014.06 1014.16 1014.28 1014.42 1014.62 1014.74 1014.84 1014.96
1008.82 1008.19 1007.07 1004.83 1001.79 1000.98 1000.45 999.95 1000.77 1000.99 1001.31 1001.63 1001.53 1001.08 1001.06 1001.20 1001.48 1001.99 1003.43 1004.01 1004.91 1005.85 1006.49 1008.12 1008.68 1009.16 1009.59 1010.03 1010.59 1010.69 1010.94 1011.22 1011.44 1011.80 1012.30 1012.66 1012.92 1013.23 1013.45 1013.68 1013.87 1014.08 1014.21 1014.33 1014.46 1014.59 1014.70 1014.84 1014.97
1008.56 1006.96 1004.98 1003.38 1001.75 1001.16 1001.59 1001.41 1001.01 1001.36 1001.02 1001.25 1001.50 1001.11 1001.14 1001.52 1002.54 1002.96 1003.81 1004.38 1005.00 1005.74 1006.48 1008.24 1008.91 1009.29 1009.72 1010.20 1010.76 1011.01 1011.27 1011.58 1011.97 1012.27 1012.44 1012.72 1012.98 1013.27 1013.57 1013.83 1014.06 1014.19 1014.35 1014.46 1014.66 1014.84 1014.91 1014.98 1015.10
1007.32 1006.23 1003.97 1002.00 1000.87 1000.65 1001.01 1001.65 1001.79 1001.48 1001.35 1001.49 1001.79 1001.42 1001.26 1001.98 1002.72 1003.29 1003.83 1004.28 1004.88 1005.67 1006.67 1007.98 1009.23 1009.52 1009.82 1010.38 1010.81 1011.18 1011.49 1011.66 1012.00 1012.38 1012.68 1012.84 1013.06 1013.34 1013.57 1013.73 1013.93 1014.19 1014.40 1014.56 1014.74 1014.90 1015.05 1015.14 1015.25
1006.75 1005.22 1003.10 1001.71 1000.57 1000.06 1000.48 1001.62 1001.93 1001.56 1001.32 1001.08 1001.48 1001.39 1000.90 1001.82 1002.48 1003.15 1003.67 1004.13 1004.81 1005.63 1006.63 1007.84 1008.69 1009.68 1010.25 1010.53 1010.88 1011.20 1011.44 1011.80 1012.11 1012.39 1012.72 1013.06 1013.22 1013.30 1013.46 1013.71 1013.90 1014.10 1014.35 1014.61 1014.79 1014.94 1015.03 1015.17 1015.23
1006.51 1005.24 1003.11 1001.39 1000.59 1000.45 1000.70 1001.50 1001.89 1001.45 1001.04 1001.35 1002.21 1001.13 1000.97 1001.29 1003.01 1003.24 1003.47 1004.00 1004.61 1005.47 1006.22 1007.15 1008.10 1009.00 1009.62 1010.29 1010.91 1011.21 1011.47 1011.66 1011.94 1012.33 1012.73 1013.06 1013.30 1013.48 1013.49 1013.57 1013.74 1013.91 1014.10 1014.38 1014.67 1014.87 1015.04 1015.17 1015.30
1006.75 1004.90 1002.09 1001.01 1001.00 1000.91 1001.69 1001.60 1001.85 1001.87 1001.57 1001.98 1001.70 1001.68 1001.48 1002.60 1003.22 1003.32 1003.43 1003.76 1004.34 1005.16 1005.86 1006.64 1007.52 1008.26 1008.70 1009.47 1010.63 1011.39 1011.72 1011.92 1012.14 1012.45 1012.83 1013.23 1012.94 1013.26 1013.44 1013.32 1013.54 1013.84 1013.99 1014.15 1014.28 1014.43 1014.66 1014.97 1015.13
1005.61 1003.49 1001.51 1001.44 1001.06 1001.18 1000.87 1001.79 1001.55 1002.27 1001.64 1001.66 1001.95 1002.19 1002.66 1002.71 1003.02 1003.01 1003.17 1003.33 1003.85 1004.75 1005.76 1006.41 1007.38 1007.93 1008.18 1008.85 1010.03 1010.67 1011.21 1011.54 1011.80 1012.11 1012.56 1012.43 1012.21 1012.66 1012.77 1013.13 1013.89 1014.16 1014.33 1014.43 1014.45 1014.54 1014.61 1014.64 1013.69
1004.30 1001.61 1001.54 1001.42 1001.57 1001.88 1001.54 1001.92 1002.00 1001.93 1001.15 1001.06 1001.38 1002.06 1002.94 1002.82 1002.90 1002.75 1002.94 1003.03 1003.85 1004.79 1005.66 1006.38 1007.39 1007.91 1008.07 1008.52 1009.57 1009.84 1010.44 1010.99 1011.44 1011.63 1012.06 1011.96 1012.03 1012.38 1012.67 1012.66 1013.46 1013.56 1014.02 1013.66 1014.13 1014.33 1014.09 1013.44 1012.77
1003.40 1002.24 1002.23 1001.71 1002.36 1002.44 1001.97 1001.97 1001.63 1001.86 1001.53 1001.20 1001.56 1002.50 1002.64 1003.08 1002.81 1002.50 1002.65 1002.95 1003.64 1004.70 1005.61 1006.71 1007.26 1007.93 1008.26 1008.15 1009.02 1009.04 1009.57 1010.26 1010.82 1011.35 1011.99 1011.89 1012.08 1012.11 1012.28 1012.07 1012.36 1012.82 1012.57 1012.62 1012.69 1012.69 1012.89 1013.10 1013.13
1002.49 1002.36 1002.24 1002.65 1002.33 1002.04 1002.10 1001.63 1001.57 1001.35 1001.74 1001.66 1001.89 1002.22 1002.24 1002.41 1002.36 1002.38 1002.32 1002.84 1003.62 1004.67 1005.76 1006.71 1007.16 1007.83 1008.37 1008.56 1008.78 1009.01 1009.45 1009.78 1010.14 1010.74 1011.52 1011.63 1011.82 1011.90 1011.87 1011.96 1012.06 1012.09 1012.20 1012.25 1012.46 1012.49 1012.82 1013.07 1013.27
1001.82 1002.31 1002.20 1002.13 1002.05 1002.09 1001.87 1001.36 1001.69 1001.22 1001.54 1001.60 1001.77 1001.80 1001.82 1001.81 1001.86 1001.95 1002.21 1002.82 1003.69 1004.52 1005.49 1006.30 1006.95 1007.58 1008.23 1008.44 1008.89 1009.28 1009.50 1009.62 1010.14 1010.32 1010.77 1011.60 1011.61 1011.88 1011.94 1012.13 1012.33 1012.34 1012.52 1012.50 1012.59 1012.58 1012.96 1012.86 1012.62
1002.34 1002.15 1001.74 1001.17 1001.43 1001.45 1001.91 1000.63 999.72 1000.81 1001.26 1001.09 1001.04 1001.10 1001.31 1001.31 1001.61 1001.43 1002.11 1002.65 1003.43 1004.09 1004.98 1005.86 1006.67 1007.57 1008.45 1008.49 1008.98 1009.17 1009.23 1009.40 1009.81 1009.94 1010.65 1011.10 1011.50 1011.72 1011.98 1011.96 1012.15 1012.28 1012.84 1013.27 1013.69 1013.51 1013.49 1013.17 1013.10
1002.24 1001.82 1000.06 999.62 1000.57 1000.87 1001.60 997.87 998.74 999.53 1000.35 999.99 1000.20 1000.35 1000.59 1000.77 1001.12 1001.39 1001.78 1002.35 1003.09 1003.73 1004.53 1005.54 1006.33 1007.37 1008.34 1008.28 1008.59 1009.03 1009.01 1009.25 1009.46 1009.74 1010.07 1010.69 1011.01 1011.36 1011.76 1011.90 1012.10 1012.29 1013.42 1013.62 1013.72 1013.70 1013.89 1013.77 1013.67
1001.05 998.42 998.18 998.63 999.19 1000.09 1000.16 998.42 998.19 998.56 998.73 998.97 999.15 999.56 999.86 1000.09 1000.54 1001.04 1001.53 1001.94 1002.74 1003.61 1004.28 1005.15 1006.06 1006.92 1007.93 1008.23 1008.89 1009.11 1008.91 1009.00 1008.91 1009.46 1009.85 1010.59 1010.96 1011.47 1011.80 1012.49 1013.09 1013.41 1013.85 1014.55 1014.17 1014.03 1014.15 1014.07 1013.35
997.23 997.54 997.18 996.87 997.95 999.28 998.55 998.08 997.50 997.86 997.90 998.19 998.33 998.56 999.01 999.27 999.66 1000.58 1001.25 1001.91 1002.49 1003.36 1004.07 1004.96 1006.22 1006.27 1007.26 1008.28 1008.74 1008.81 1008.86 1008.98 1008.86 1009.77 1010.38 1011.25 1011.54 1012.11 1012.62 1013.26 1013.73 1014.53 1014.94 1015.47 1014.17 1013.68 1014.02 1014.48 1013.97
996.80 996.81 996.52 996.51 997.06 997.75 997.35 997.01 997.09 997.23 997.36 997.31 997.62 997.78 998.20 998.54 999.17 999.88 1000.64 1001.51 1002.32 1003.21 1004.08 1005.06 1006.07 1006.42 1007.08 1007.93 1008.35 1008.19 1008.41 1008.96 1009.86 1010.35 1010.90 1011.54 1011.98 1012.43 1012.78 1013.40 1013.88 1014.90 1014.84 1015.99 1015.30 1014.92 1014.09 1014.44 1014.22
998.62 997.57 996.25 996.95 997.41 997.89 997.07 996.41 996.34 996.71 996.67 996.89 997.16 997.29 997.56 998.06 998.63 999.44 1000.43 1001.14 1001.96 1002.75 1003.70 1004.71 1005.71 1006.54 1007.15 1007.49 1007.70 1007.85 1009.06 1009.25 1009.89 1010.45 1011.08 1011.75 1012.32 1012.65 1012.46 1013.10 1013.53 1013.75 1014.02 1016.35 1015.94 1015.12 1014.52 1014.02 1013.88
998.36 997.59 997.31 997.12 997.20 997.60 996.87 996.10 995.73 995.67 996.13 996.26 996.54 996.97 997.24 997.61 998.16 999.19 1000.01 1000.72 1001.42 1002.30 1003.34 1004.38 1005.55 1006.67 1007.25 1007.30 1007.67 1008.31 1008.97 1009.59 1009.88 1010.55 1011.28 1011.58 1012.01 1012.61 1012.65 1012.86 1013.00 1013.54 1014.00 1014.88 1015.13 1014.95 1014.73 1014.10 1014.06
997.81 998.48 998.44 997.90 997.51 996.60 996.74 994.13 994.38 994.65 994.81 995.18 995.70 996.24 996.56 996.88 997.55 998.49 999.59 1000.30 1001.18 1001.95 1003.33 1004.44 1005.55 1006.68 1007.26 1007.38 1007.85 1008.31 1008.33 1008.88 1009.55 1010.24 1011.46 1012.11 1012.25 1012.58 1012.94 1013.08 1013.25 1013.91 1014.79 1014.89 1014.60 1015.07 1014.97 1015.01 1013.99
997.47 998.82 998.78 998.52 997.70 996.52 995.80 995.10 991.83 993.15 993.55 993.41 994.34 995.13 995.83 996.32 996.96 997.72 998.95 999.98 1001.07 1002.29 1003.45 1004.95 1005.92 1006.60 1006.88 1007.54 1007.85 1008.14 1008.80 1009.19 1009.70 1010.91 1012.11 1012.51 1012.65 1012.70 1013.30 1013.53 1013.86 1014.40 1014.79 1015.29 1015.09 1015.31 1015.31 1014.83 1014.54
998.84 999.18 998.71 998.91 998.05 995.95 994.74 994.26 991.86 991.28 991.73 992.57 993.39 994.22 995.20 995.79 996.35 997.41 998.70 1000.29 1002.09 1003.23 1004.73 1005.55 1006.30 1006.69 1007.10 1007.85 1008.52 1008.95 1009.90 1010.13 1010.26 1011.14 1012.11 1012.90 1013.26 1013.47 1013.86 1014.00 1014.31 1014.76 1015.10 1015.17 1015.08 1015.31 1015.23 1014.95 1014.79
998.95 998.93 998.35 997.96 996.64 995.03 993.95 993.19 991.17 990.13 991.43 991.84 992.35 993.70 994.76 995.60 996.62 998.07 999.84 1001.91 1003.25 1004.41 1005.41 1006.18 1006.76 1007.66 1008.08 1008.63 1009.20 1010.01 1010.81 1011.73 1011.94 1011.73 1012.15 1012.57 1012.69 1013.06 1013.80 1014.14 1014.46 1014.66 1014.84 1015.08 1015.11 1015.15 1014.90 1014.73 1014.70
997.45 997.22 995.57 993.68 993.51 992.60 992.57 991.37 990.73 991.63 992.27 992.13 992.50 993.66 995.12 997.07 997.82 999.44 1001.43 1002.68 1003.58 1004.76 1005.79 1006.42 1006.97 1007.68 1008.20 1008.88 1009.27 1009.93 1010.23 1010.53 1012.88 1013.64 1012.98 1013.50 1013.79 1014.10 1014.56 1014.76 1014.96 1014.97 1014.87 1014.76 1014.78 1014.32 1014.38 1014.56 1014.40
996.93 996.13 995.65 993.45 992.55 992.35 991.87 991.48 990.90 991.66 992.66 993.55 993.46 995.11 996.91 998.62 999.90 1001.40 1002.52 1003.15 1003.91 1004.75 1005.50 1006.14 1006.68 1007.55 1008.18 1008.69 1009.04 1009.65 1009.93 1010.70 1012.98 1015.06 1014.18 1014.40 1014.33 1014.86 1015.18 1015.22 1015.16 1015.08 1014.89 1014.78 1014.72 1014.13 1014.42 1014.45 1014.15
995.81 996.76 995.30 993.64 991.99 990.73 990.44 990.55 990.04 991.26 992.87 994.30 995.92 997.24 998.75 1000.35 1001.45 1002.27 1002.96 1003.50 1004.13 1004.81 1005.51 1006.30 1007.15 1007.70 1008.74 1009.16 1009.06 1010.30 1010.21 1010.33 1013.87 1014.61 1014.08 1014.43 1014.67 1014.95 1015.37 1015.22 1015.21 1015.13 1015.03 1014.98 1014.83 1014.32 1014.17 1014.42 1014.19
997.37 995.78 994.55 993.87 991.55 989.91 989.51 990.29 990.44 991.12 992.90 994.91 997.26 999.49 1000.19 1001.36 1002.31 1002.94 1003.48 1004.10 1004.47 1005.02 1005.86 1006.71 1007.48 1008.05 1009.16 1009.41 1009.93 1010.38 1011.31 1012.23 1013.60 1013.94 1014.28 1014.64 1014.76 1015.04 1015.63 1015.47 1015.22 1015.21 1015.14 1015.13 1014.99 1014.69 1014.34 1014.28 1014.08
997.56 995.86 994.29 992.79 991.90 990.46 989.67 991.21 992.75 992.19 993.86 995.77 998.82 1000.25 1001.33 1002.11 1002.75 1003.12 1003.54 1003.90 1004.41 1005.14 1006.15 1007.02 1007.78 1008.42 1009.42 1009.79 1010.50 1011.31 1011.81 1012.87 1013.78 1014.26 1014.65 1014.59 1014.86 1015.51 1015.69 1015.46 1015.22 1015.23 1015.18 1015.13 1014.94 1014.55 1014.17 1013.81 1013.49
Wind_Speed
12 7 5 6 9 8 16 16 9 8 8 5 1 5 9 12 6 5 8 10 20 21 20 21 18 18 18 18 18 19 19 19 18 18 17 16 15 15 14 12 11 10 11 11 11 11 11 12 12
5 4 6 3 10 15 15 19 10 10 6 3 6 6 6 7 1 8 12 12 21 20 19 21 18 19 19 17 18 20 20 19 18 18 17 16 15 14 13 12 11 11 11 10 10 11 11 11 11
5 6 7 7 14 20 16 11 8 12 2 8 5 3 4 2 3 3 12 19 22 20 19 19 18 17 18 18 17 18 20 20 19 18 17 16 15 14 13 12 11 11 11 11 11 11 11 11 11
5 6 5 13 20 19 21 15 3 9 8 5 4 9 3 4 4 5 18 20 19 19 18 20 18 17 17 17 16 17 18 18 19 19 17 16 15 13 13 11 11 11 11 11 11 12 12 12 12
6 4 12 16 25 22 9 16 7 13 7 7 3 8 6 6 6 13 16 17 19 19 18 19 17 17 16 16 16 16 17 17 16 16 17 16 15 14 12 11 10 10 11 11 11 10 9 10 11
7 6 12 18 23 21 17 19 14 13 10 8 9 11 9 6 7 13 16 17 18 18 19 19 17 17 17 16 15 15 15 16 17 16 16 16 15 14 13 12 11 11 10 11 11 10 10 8 8
15 11 18 21 21 17 16 14 15 19 18 16 10 10 4 8 8 12 16 16 17 19 19 18 18 16 15 15 15 15 16 16 15 15 15 15 14 14 14 12 11 11 10 9 9 10 9 8 8
11 10 21 22 17 21 15 8 11 16 13 4 4 8 10 12 10 12 15 16 18 18 18 19 18 18 17 16 15 16 16 17 16 16 15 14 14 12 13 12 12 12 12 11 10 10 9 8 7
15 11 18 23 19 16 1 11 11 4 9 8 10 10 5 4 11 14 15 17 17 17 18 19 19 18 17 17 15 14 15 15 14 14 13 12 12 13 14 13 15 12 12 12 12 12 11 9 9
17 17 24 19 15 13 12 8 7 10 14 12 11 6 4 10 13 16 17 19 20 20 19 17 17 17 16 13 16 15 13 12 12 13 14 12 11 11 11 9 8 8 8 9 10 10 10 11 10
17 28 18 16 15 17 18 11 9 11 13 12 14 3 4 9 12 16 17 18 18 18 15 17 16 15 15 13 11 9 8 8 9 13 13 11 8 8 8 6 8 8 10 8 10 10 9 12 10
20 24 24 19 16 17 20 17 18 15 15 4 7 3 2 9 14 16 18 18 20 19 17 16 17 15 14 11 11 11 10 10 9 10 12 8 6 7 7 6 8 8 8 9 8 7 8 7 9
29 21 17 21 20 19 18 20 17 19 17 17 13 10 9 8 14 15 16 17 17 18 17 18 17 15 13 12 10 9 9 9 10 10 12 9 9 7 8 6 6 6 7 7 6 6 6 8 9
10 25 26 18 21 22 22 21 20 15 15 14 15 18 14 10 14 15 14 16 17 17 17 17 17 16 14 13 12 9 9 9 8 9 10 12 8 6 7 6 7 6 5 5 5 5 6 6 7
16 17 16 26 25 19 15 28 31 21 17 19 18 18 16 12 10 16 16 16 17 15 16 17 17 15 14 14 12 9 9 8 9 9 10 12 10 7 8 6 5 5 3 3 3 5 5 6 6
22 22 25 25 23 24 18 25 21 26 25 26 24 20 17 16 13 15 16 15 15 15 17 16 14 15 15 14 10 7 8 9 9 8 9 12 11 9 8 6 5 4 0 2 2 3 3 3 5
20 25 33 23 22 18 26 17 23 10 24 24 22 21 19 18 16 13 16 15 15 15 14 16 15 15 16 10 9 10 10 9 8 8 8 9 9 7 5 4 3 4 2 1 1 1 2 4 4
27 30 25 26 25 25 25 23 11 9 20 19 23 21 21 20 18 15 16 15 14 14 13 13 10 14 13 9 6 8 8 8 6 5 4 7 7 9 9 8 11 10 7 1 4 3 3 3 7
9 18 26 22 16 25 29 23 24 15 16 19 17 19 20 22 18 16 14 14 14 13 13 13 13 10 9 9 10 9 9 6 5 6 9 9 9 11 11 9 7 7 10 13 9 4 4 6 5
31 22 19 17 18 20 23 26 22 24 18 20 18 17 19 21 21 15 15 14 14 15 14 14 13 11 9 10 9 6 9 8 8 7 8 10 9 8 11 11 8 9 9 6 13 5 7 6 2
29 31 20 16 18 19 15 19 24 26 24 22 19 16 18 20 22 18 16 15 15 15 15 13 12 11 9 8 7 5 7 6 6 9 6 8 8 9 10 12 10 9 9 10 8 5 8 8 2
28 27 23 15 14 18 22 12 27 24 27 28 25 22 21 20 19 19 16 15 15 14 12 12 13 11 9 9 9 10 9 9 9 8 6 6 7 8 9 6 6 6 5 5 3 2 3 3 6
28 20 25 19 19 14 23 11 14 26 27 28 24 23 22 20 20 19 18 15 11 11 12 12 13 12 10 8 5 9 7 5 6 7 9 8 6 7 7 5 7 6 4 4 3 2 1 2 4
22 20 22 22 18 18 19 18 17 20 26 24 23 23 23 22 20 17 14 13 11 11 12 13 11 9 10 10 12 9 10 7 9 9 8 7 5 6 7 9 7 6 6 4 4 2 2 3 4
21 20 10 13 16 14 26 18 21 17 17 21 24 23 22 19 16 16 17 15 14 15 13 14 16 15 16 17 18 16 15 9 1 8 8 8 6 6 7 6 5 5 5 4 2 1 0 2 4
30 28 12 20 22 25 16 21 12 11 8 10 19 19 16 13 14 16 16 15 17 17 16 16 17 16 18 19 18 16 18 13 11 5 6 6 5 5 5 5 5 5 4 3 2 1 4 4 4
24 28 29 14 20 18 16 12 12 11 15 12 15 20 19 16 15 16 16 16 17 15 17 19 20 19 17 15 14 16 15 16 12 1 6 5 6 6 5 5 5 4 4 4 4 3 4 5 5
23 26 27 13 18 20 19 24 8 23 19 17 18 18 16 16 16 17 15 16 15 19 19 18 13 14 13 12 13 11 14 17 10 6 7 7 6 5 5 5 4 3 4 5 5 4 4 6 6
13 22 26 20 17 13 16 17 5 25 23 21 19 17 18 17 16 15 15 14 16 16 16 16 16 17 15 15 15 16 14 12 9 7 7 7 6 5 4 3 2 1 2 4 5 5 5 6 6
11 23 27 14 16 14 10 11 2 12 18 19 18 17 17 17 16 17 17 19 19 18 18 17 17 17 15 16 16 15 14 11 7 7 6 6 5 3 3 2 0 3 4 5 6 6 6 7 8
Wind_Direction
256 254 261 236 238 229 247 242 250 198 189 125 319 287 303 344 302 29 117 144 143 148 151 158 148 143 144 146 141 140 140 139 142 142 144 145 145 141 138 137 130 130 133 133 132 132 134 135 136
290 240 221 241 244 234 231 235 196 220 120 191 276 239 243 245 38 95 136 150 154 146 151 154 152 149 145 147 143 142 141 142 144 143 145 145 144 141 138 138 135 139 139 136 136 137 138 139 141
248 248 245 231 236 239 245 200 234 234 230 270 276 241 304 250 117 130 112 155 151 152 156 144 153 148 144 146 148 146 144 145 143 144 145 146 145 143 142 144 146 151 149 147 147 146 147 151 153
202 188 231 244 240 236 252 256 166 261 220 236 270 265 194 4 339 112 143 152 148 151 154 140 150 149 149 148 153 147 145 145 144 146 147 149 147 145 144 148 151 158 157 156 156 156 158 160 161
210 254 239 230 247 249 232 261 282 246 250 223 214 257 286 122 70 128 145 154 154 154 147 154 150 149 150 151 154 149 146 143 145 148 150 151 149 147 148 151 156 161 163 164 164 164 164 165 170
211 263 237 237 243 238 222 244 239 234 250 242 264 253 261 78 157 149 153 160 157 155 148 149 151 150 151 152 150 146 144 147 149 152 155 155 153 153 155 157 161 166 169 170 171 172 174 177 181
246 218 242 247 252 253 231 208 245 240 247 246 228 260 244 174 144 160 161 157 158 156 156 157 160 152 148 149 149 150 151 152 153 156 159 161 162 162 162 167 170 169 168 172 175 179 181 184 190
225 254 252 241 248 249 243 231 222 238 231 173 210 233 238 113 163 162 164 159 160 161 157 161 161 166 168 160 154 157 158 158 160 164 165 166 166 170 173 171 176 173 173 174 177 183 188 191 199
226 234 238 240 230 247 280 226 191 250 236 208 204 256 317 139 173 169 166 166 161 167 163 167 166 171 178 166 161 160 162 164 162 165 167 164 187 184 175 198 160 184 180 180 182 184 187 193 204
209 227 237 243 241 244 236 239 179 216 219 209 197 206 274 175 188 181 178 173 169 169 168 169 170 175 179 168 160 175 171 178 182 182 176 192 192 189 191 170 169 192 196 199 196 195 194 201 210
217 237 229 236 232 254 257 213 238 236 226 210 200 186 159 197 203 195 193 177 169 169 169 170 171 180 182 176 168 178 176 180 191 190 181 203 187 189 205 188 195 206 197 206 196 194 219 211 229
241 234 242 253 225 240 245 248 240 237 247 336 157 156 259 188 213 203 195 175 173 171 173 176 174 180 193 179 183 182 182 184 194 196 192 200 203 185 209 213 204 212 196 217 203 205 222 235 235
224 246 223 246 237 236 246 244 248 234 236 250 227 244 248 236 212 205 197 175 171 175 178 179 179 183 189 196 190 192 203 188 195 189 194 205 211 197 203 214 233 218 230 202 215 231 209 217 236
227 233 245 225 240 240 243 247 233 231 234 238 244 249 245 231 217 192 194 177 181 179 180 181 187 186 189 196 190 192 201 180 201 196 193 210 216 200 215 216 222 238 249 255 233 224 233 231 251
256 241 237 235 230 228 238 248 240 235 226 236 234 236 235 226 219 201 190 187 190 186 178 187 188 186 194 199 191 201 189 199 198 198 198 203 206 204 240 224 225 231 205 235 266 328 300 277 274
229 238 238 220 220 229 220 253 226 220 224 228 228 228 230 228 205 211 203 204 191 194 188 186 187 184 196 197 186 211 179 208 205 204 195 200 202 217 207 236 235 213 261 264 283 254 303 303 290
216 231 224 229 193 213 205 239 240 180 215 223 221 217 221 220 209 206 208 202 194 200 189 188 187 188 193 195 167 197 196 213 199 198 206 194 204 215 250 358 3 9 356 10 253 196 302 301 312
222 224 245 216 202 210 207 231 211 222 223 223 224 216 214 216 207 198 202 202 200 192 191 187 195 196 175 163 188 194 181 201 194 197 119 112 102 85 80 65 56 35 6 319 281 42 14 318 312
263 254 226 233 211 203 223 215 223 218 219 211 207 208 209 209 202 203 198 195 194 189 189 176 192 195 152 168 186 190 188 167 143 166 123 124 122 118 110 96 81 39 49 329 334 305 325 268 254
246 253 241 238 206 202 216 227 218 221 213 212 211 211 206 202 203 190 196 198 194 191 190 184 185 161 169 186 202 182 149 179 170 143 146 151 139 140 128 130 125 123 97 299 294 289 276 253 270
226 232 236 226 207 216 232 222 217 209 227 211 214 219 214 206 203 195 196 193 197 198 193 182 169 165 186 181 165 145 131 125 162 144 154 166 171 152 145 151 150 152 165 204 220 256 255 286 355
227 223 237 221 202 217 209 232 207 208 215 223 227 223 216 208 204 192 193 194 198 196 180 173 159 160 181 179 167 174 174 175 173 163 150 147 141 136 140 160 147 138 187 199 114 264 285 255 263
233 225 219 219 230 233 185 240 238 195 210 214 206 209 208 204 200 197 194 192 180 170 160 153 155 165 153 164 184 186 186 188 151 130 113 100 87 82 70 95 96 104 87 99 121 127 355 244 294
230 227 222 222 236 226 217 211 223 189 209 209 195 205 204 203 198 196 180 142 128 136 147 146 113 127 136 101 70 55 92 128 140 131 125 117 107 100 101 101 108 120 137 129 112 129 94 349 318
219 201 184 195 209 218 210 209 226 185 194 207 198 194 201 197 192 180 143 141 144 147 132 125 114 103 96 94 87 73 63 46 93 115 134 142 136 129 110 116 140 132 115 121 132 116 239 3 340
196 199 207 182 193 207 204 217 203 188 198 215 176 177 155 169 160 151 145 150 145 144 141 135 126 123 117 114 113 111 97 77 351 15 88 93 91 94 120 127 136 130 122 104 46 187 336 356 327
197 199 221 258 192 222 180 222 202 187 163 183 149 148 152 145 148 132 147 148 141 142 142 130 128 128 137 136 121 109 112 116 103 130 107 104 106 130 136 125 107 88 72 43 348 23 316 325 316
214 209 214 229 213 201 186 202 194 187 167 153 153 149 135 136 136 138 137 129 132 130 128 127 128 119 118 115 107 112 96 101 150 158 132 121 120 115 141 123 103 77 37 5 339 334 344 311 305
210 210 215 213 236 199 181 199 160 182 172 160 145 150 138 129 130 128 123 129 133 126 122 122 119 118 118 108 104 101 108 113 140 144 134 139 130 130 157 134 123 43 346 331 312 307 283 301 302
221 222 199 208 206 217 211 156 42 174 159 143 138 141 126 125 127 124 135 131 129 122 116 114 114 111 110 110 110 109 107 118 126 135 138 135 132 161 170 165 13 336 329 314 310 310 324 318 321